| time (UTC) | temp F | wind direction | speed MPH | gust MPH | rain 1hr in | rain 24hr in | rain mn in | humidity % | barometer mb |
| 20260502215902 | 64 | 268 | 2.0 | 3.0 | 0.00 | 0.00 | 0.00 | 37 | 1010.6 |
| 20260502214902 | 64 | 258 | 1.0 | 2.0 | 0.00 | 0.00 | 0.00 | 36 | 1010.7 |
| 20260502213902 | 64 | 236 | 3.0 | 4.0 | 0.00 | 0.00 | 0.00 | 37 | 1010.9 |
| 20260502212902 | 64 | 290 | 2.0 | 3.0 | 0.00 | 0.00 | 0.00 | 36 | 1011.0 |
| 20260502211902 | 65 | 263 | 2.0 | 3.0 | 0.00 | 0.00 | 0.00 | 36 | 1011.2 |
| 20260502210902 | 65 | 263 | 4.0 | 8.0 | 0.00 | 0.00 | 0.00 | 35 | 1011.5 |
| 20260502205902 | 65 | 261 | 3.0 | 4.0 | 0.00 | 0.00 | 0.00 | 37 | 1011.7 |
| 20260502204932 | 64 | 247 | 2.0 | 3.0 | 0.00 | 0.00 | 0.00 | 36 | 1011.8 |
| 20260502203902 | 64 | 236 | 2.0 | 4.0 | 0.00 | 0.00 | 0.00 | 36 | 1012.0 |
| 20260502202902 | 64 | 252 | 4.0 | 7.0 | 0.00 | 0.00 | 0.00 | 35 | 1012.3 |
| 20260502201902 | 64 | 252 | 2.0 | 3.0 | 0.00 | 0.00 | 0.00 | 34 | 1012.6 |
| 20260502200902 | 64 | 280 | 2.0 | 2.0 | 0.00 | 0.00 | 0.00 | 36 | 1012.7 |
| 20260502195902 | 64 | 274 | 4.0 | 6.0 | 0.00 | 0.00 | 0.00 | 36 | 1012.8 |
| 20260502195002 | 63 | 259 | 5.0 | 8.0 | 0.00 | 0.00 | 0.00 | 39 | 1013.1 |
| 20260502193902 | 63 | 246 | 3.0 | 4.0 | 0.00 | 0.00 | 0.00 | 37 | 1013.3 |
| 20260502192902 | 62 | 262 | 3.0 | 4.0 | 0.00 | 0.00 | 0.00 | 39 | 1013.5 |
| 20260502191933 | 62 | 260 | 3.0 | 4.0 | 0.00 | 0.00 | 0.00 | 35 | 1013.7 |
| 20260502190901 | 62 | 265 | 2.0 | 3.0 | 0.00 | 0.00 | 0.00 | 37 | 1013.8 |
| 20260502185902 | 62 | 284 | 5.0 | 8.0 | 0.00 | 0.00 | 0.00 | 38 | 1014.0 |
| 20260502184902 | 61 | 230 | 4.0 | 5.0 | 0.00 | 0.00 | 0.00 | 38 | 1014.2 |
| 20260502183902 | 61 | 257 | 3.0 | 3.0 | 0.00 | 0.00 | 0.00 | 36 | 1014.5 |
| 20260502182902 | 61 | 267 | 4.0 | 6.0 | 0.00 | 0.00 | 0.00 | 39 | 1014.6 |
| 20260502181902 | 60 | 238 | 2.0 | 4.0 | 0.00 | 0.00 | 0.00 | 38 | 1014.7 |
| 20260502180902 | 60 | 270 | 4.0 | 6.0 | 0.00 | 0.00 | 0.00 | 39 | 1014.9 |
| 20260502163932 | 57 | 283 | 2.0 | 3.0 | 0.00 | 0.00 | 0.00 | 44 | 1016.2 |
| 20260502162902 | 56 | 241 | 1.0 | 2.0 | 0.00 | 0.00 | 0.00 | 46 | 1016.4 |
| 20260502161902 | 56 | 303 | 2.0 | 3.0 | 0.00 | 0.00 | 0.00 | 41 | 1016.4 |
| 20260502160902 | 56 | 274 | 2.0 | 3.0 | 0.00 | 0.00 | 0.00 | 43 | 1016.5 |
| 20260502151902 | 53 | 273 | 3.0 | 4.0 | 0.00 | 0.00 | 0.00 | 49 | 1017.0 |
| 20260502150932 | 53 | 270 | 2.0 | 3.0 | 0.00 | 0.00 | 0.00 | 47 | 1017.1 |
| 20260502122933 | 42 | 271 | 2.0 | 2.0 | 0.00 | 0.00 | 0.00 | 70 | 1017.4 |
| 20260502121902 | 41 | 254 | 2.0 | 3.0 | 0.00 | 0.00 | 0.00 | 71 | 1017.4 |
| 20260502120902 | 41 | 262 | 1.0 | 2.0 | 0.00 | 0.00 | 0.00 | 71 | 1017.4 |
| 20260502115903 | 41 | 279 | 1.0 | 2.0 | 0.00 | 0.00 | 0.00 | 69 | 1017.4 |
| 20260502114901 | 41 | 277 | 0.0 | 0.0 | 0.00 | 0.00 | 0.00 | 69 | 1017.3 |
| 20260502113903 | 41 | 271 | 0.0 | 0.0 | 0.00 | 0.00 | 0.00 | 69 | 1017.3 |
| 20260502112902 | 41 | 269 | 0.0 | 0.0 | 0.00 | 0.00 | 0.00 | 69 | 1017.2 |
| 20260502111932 | 41 | 269 | 0.0 | 0.0 | 0.00 | 0.00 | 0.00 | 70 | 1017.2 |
| 20260502110903 | 41 | 269 | 0.0 | 0.0 | 0.00 | 0.00 | 0.00 | 69 | 1017.2 |
| 20260502105932 | 41 | 269 | 1.0 | 1.0 | 0.00 | 0.00 | 0.00 | 69 | 1017.1 |
| 20260502104932 | 41 | 265 | 1.0 | 2.0 | 0.00 | 0.00 | 0.00 | 68 | 1017.1 |
| 20260502103902 | 41 | 270 | 1.0 | 2.0 | 0.00 | 0.00 | 0.00 | 68 | 1017.1 |
| 20260502102902 | 42 | 271 | 1.0 | 2.0 | 0.00 | 0.00 | 0.00 | 68 | 1017.1 |
| 20260502101902 | 42 | 275 | 1.0 | 2.0 | 0.00 | 0.00 | 0.00 | 67 | 1017.2 |
| 20260502100902 | 42 | 273 | 1.0 | 2.0 | 0.00 | 0.00 | 0.00 | 67 | 1017.1 |
| 20260502090932 | 42 | 267 | 2.0 | 2.0 | 0.00 | 0.00 | 0.00 | 64 | 1017.1 |
| 20260502070902 | 42 | 241 | 0.0 | 0.0 | 0.00 | 0.00 | 0.00 | 67 | 1017.5 |
| 20260502065902 | 41 | 241 | 0.0 | 0.0 | 0.00 | 0.00 | 0.00 | 69 | 1017.5 |
| 20260502064902 | 40 | 241 | 0.0 | 0.0 | 0.00 | 0.00 | 0.00 | 67 | 1017.6 |
| 20260502063902 | 40 | 232 | 0.0 | 0.0 | 0.00 | 0.00 | 0.00 | 66 | 1017.6 |
| 20260502062902 | 41 | 266 | 0.0 | 0.0 | 0.00 | 0.00 | 0.00 | 68 | 1017.6 |
| 20260502061902 | 41 | 273 | 0.0 | 0.0 | 0.00 | 0.00 | 0.00 | 66 | 1017.6 |
| 20260502060932 | 41 | 273 | 0.0 | 0.0 | 0.00 | 0.00 | 0.00 | 67 | 1017.6 |
| 20260502055902 | 42 | 273 | 1.0 | 2.0 | 0.00 | 0.00 | 0.00 | 67 | 1017.6 |
| 20260502054902 | 41 | 273 | 0.0 | 2.0 | 0.00 | 0.00 | 0.00 | 65 | 1017.7 |
| 20260502053902 | 41 | 273 | 0.0 | 0.0 | 0.00 | 0.00 | 0.00 | 63 | 1017.7 |
| 20260502052932 | 41 | 273 | 0.0 | 0.0 | 0.00 | 0.00 | 0.00 | 64 | 1017.7 |
| 20260502051902 | 41 | 273 | 0.0 | 0.0 | 0.00 | 0.00 | 0.00 | 64 | 1017.7 |
| 20260502050902 | 41 | 5 | 1.0 | 1.0 | 0.00 | 0.00 | 0.00 | 61 | 1017.6 |
| 20260502045902 | 42 | 5 | 0.0 | 0.0 | 0.00 | 0.00 | 0.00 | 59 | 1017.6 |
| 20260502044903 | 42 | 5 | 0.0 | 0.0 | 0.00 | 0.00 | 0.00 | 59 | 1017.6 |
| 20260502043902 | 42 | 5 | 0.0 | 0.0 | 0.00 | 0.00 | 0.00 | 59 | 1017.5 |
| 20260502042901 | 42 | 5 | 0.0 | 0.0 | 0.00 | 0.00 | 0.00 | 57 | 1017.5 |
| 20260502041902 | 42 | 5 | 0.0 | 0.0 | 0.00 | 0.00 | 0.00 | 60 | 1017.6 |
| 20260502040902 | 43 | 11 | 0.0 | 0.0 | 0.00 | 0.00 | 0.00 | 54 | 1017.6 |
| 20260502035902 | 43 | 11 | 0.0 | 0.0 | 0.00 | 0.00 | 0.00 | 54 | 1017.6 |
| 20260502034902 | 43 | 20 | 0.0 | 0.0 | 0.00 | 0.00 | 0.00 | 53 | 1017.7 |
| 20260502033902 | 44 | 20 | 0.0 | 0.0 | 0.00 | 0.00 | 0.00 | 50 | 1017.6 |
| 20260502032902 | 44 | 20 | 0.0 | 0.0 | 0.00 | 0.00 | 0.00 | 50 | 1017.7 |
| 20260502031932 | 44 | 20 | 0.0 | 0.0 | 0.00 | 0.00 | 0.00 | 48 | 1017.7 |
| 20260502030902 | 44 | 20 | 0.0 | 0.0 | 0.00 | 0.00 | 0.00 | 48 | 1017.6 |
| 20260502025902 | 45 | 20 | 0.0 | 0.0 | 0.00 | 0.00 | 0.00 | 48 | 1017.6 |
| 20260502024933 | 45 | 20 | 0.0 | 0.0 | 0.00 | 0.00 | 0.00 | 47 | 1017.6 |
| 20260502023902 | 45 | 20 | 0.0 | 0.0 | 0.00 | 0.00 | 0.00 | 48 | 1017.6 |
| 20260502022901 | 45 | 20 | 0.0 | 0.0 | 0.00 | 0.00 | 0.00 | 51 | 1017.6 |
| 20260502021932 | 46 | 20 | 0.0 | 0.0 | 0.00 | 0.00 | 0.00 | 49 | 1017.5 |
| 20260502020902 | 46 | 20 | 0.0 | 0.0 | 0.00 | 0.00 | 0.00 | 49 | 1017.5 |
| 20260502015903 | 46 | 20 | 0.0 | 0.0 | 0.00 | 0.00 | 0.00 | 47 | 1017.4 |
| 20260502014902 | 47 | 20 | 0.0 | 0.0 | 0.00 | 0.00 | 0.00 | 45 | 1017.3 |
| 20260502013902 | 48 | 20 | 0.0 | 0.0 | 0.00 | 0.00 | 0.00 | 43 | 1017.2 |
| 20260502012902 | 49 | 20 | 0.0 | 0.0 | 0.00 | 0.00 | 0.00 | 43 | 1017.1 |
| 20260502011902 | 49 | 20 | 0.0 | 0.0 | 0.00 | 0.00 | 0.00 | 42 | 1017.1 |
| 20260502010902 | 50 | 20 | 0.0 | 0.0 | 0.00 | 0.00 | 0.00 | 40 | 1017.1 |
| 20260502005902 | 51 | 20 | 0.0 | 0.0 | 0.00 | 0.00 | 0.00 | 38 | 1017.0 |
| 20260502004902 | 51 | 20 | 0.0 | 0.0 | 0.00 | 0.00 | 0.00 | 37 | 1017.0 |
| 20260502003902 | 51 | 22 | 0.0 | 0.0 | 0.00 | 0.00 | 0.00 | 36 | 1017.0 |
| 20260502002902 | 52 | 19 | 1.0 | 2.0 | 0.00 | 0.00 | 0.00 | 37 | 1017.0 |
| 20260502001902 | 52 | 22 | 1.0 | 2.0 | 0.00 | 0.00 | 0.00 | 37 | 1016.9 |
| 20260502000902 | 52 | 5 | 1.0 | 1.0 | 0.00 | 0.00 | 0.00 | 35 | 1016.9 |
| 20260501235902 | 52 | 331 | 0.0 | 0.0 | 0.00 | 0.00 | 0.00 | 35 | 1016.9 |
| 20260501234902 | 52 | 16 | 2.0 | 2.0 | 0.00 | 0.00 | 0.00 | 37 | 1016.9 |
| 20260501233902 | 53 | 67 | 2.0 | 3.0 | 0.00 | 0.00 | 0.00 | 36 | 1016.9 |
| 20260501232902 | 53 | 282 | 1.0 | 2.0 | 0.00 | 0.00 | 0.00 | 33 | 1016.9 |
| 20260501231902 | 54 | 352 | 1.0 | 3.0 | 0.00 | 0.00 | 0.00 | 37 | 1017.0 |
| 20260501230902 | 54 | 28 | 2.0 | 3.0 | 0.00 | 0.00 | 0.00 | 35 | 1017.0 |
| 20260501225902 | 54 | 227 | 1.0 | 2.0 | 0.00 | 0.00 | 0.00 | 36 | 1016.9 |
| 20260501224902 | 54 | 16 | 2.0 | 3.0 | 0.00 | 0.00 | 0.00 | 36 | 1016.9 |
| 20260501223902 | 54 | 211 | 1.0 | 4.0 | 0.00 | 0.00 | 0.00 | 35 | 1016.9 |
| 20260501222902 | 54 | 5 | 1.0 | 2.0 | 0.00 | 0.00 | 0.00 | 37 | 1017.0 |
| 20260501221902 | 55 | 7 | 1.0 | 2.0 | 0.00 | 0.00 | 0.00 | 36 | 1017.1 |
| 20260501220902 | 55 | 40 | 1.0 | 3.0 | 0.00 | 0.00 | 0.00 | 36 | 1017.0 |